This is the latest recevied weather packets stored in our database for station/object N3MFL. If no packets are shown the sender has not sent any weather packets the latest 10 day(s).
| Time | Temp. | Humidity | Pressure | Rain* | Wind** | Luminosity | Snow |
|---|---|---|---|---|---|---|---|
| 1777831076 | 11.67° C | 44% | 1007.2 hPa | 0 mm | - | 172 W/m² | - |
| 1777830774 | 11.67° C | 44% | 1007.2 hPa | 0 mm | - | 134 W/m² | - |
| 1777830469 | 11.67° C | 45% | 1007.1 hPa | 0 mm | - | 132 W/m² | - |
| 1777830168 | 12.22° C | 47% | 1007 hPa | 0 mm | - | 225 W/m² | - |
| 1777829868 | 12.22° C | 49% | 1007 hPa | 0 mm | - | 287 W/m² | - |
| 1777829564 | 11.67° C | 47% | 1007.3 hPa | 0 mm | - | 332 W/m² | - |
| 1777829261 | 11.67° C | 46% | 1007.1 hPa | 0 mm | - | 306 W/m² | - |
| 1777828958 | 11.67° C | 46% | 1007.4 hPa | 0 mm | - | 307 W/m² | - |
| 1777828655 | 11.11° C | 46% | 1007.1 hPa | 0 mm | - | 317 W/m² | - |
| 1777828352 | 11.11° C | 46% | 1007.3 hPa | 0 mm | - | 322 W/m² | - |
| 1777828049 | 11.11° C | 48% | 1007.4 hPa | 0 mm | - | 310 W/m² | - |
| 1777827746 | 10.56° C | 49% | 1007.5 hPa | 0 mm | - | 269 W/m² | - |
| 1777827443 | 10.56° C | 49% | 1007.3 hPa | 0 mm | - | 241 W/m² | - |
| 1777827140 | 10.56° C | 47% | 1007.4 hPa | 0 mm | - | 240 W/m² | - |
| 1777826835 | 11.11° C | 48% | 1007.4 hPa | 0 mm | - | 256 W/m² | - |
| 1777826534 | 10.56° C | 51% | 1007.2 hPa | 0 mm | - | 297 W/m² | - |
| 1777826229 | 10.56° C | 51% | 1007.3 hPa | 0 mm | - | 348 W/m² | - |
| 1777825928 | 10.56° C | 53% | 1007.4 hPa | 0 mm | - | 385 W/m² | - |
| 1777825624 | 10.56° C | 57% | 1007.5 hPa | 0 mm | - | 306 W/m² | - |
| 1777825322 | 10° C | 60% | 1007.4 hPa | 0 mm | - | 352 W/m² | - |
| 1777825018 | 10° C | 61% | 1007.3 hPa | 0 mm | - | 340 W/m² | - |
| 1777824714 | 9.44° C | 63% | 1007.5 hPa | 0 mm | - | 295 W/m² | - |
| 1777824412 | 8.89° C | 63% | 1007.6 hPa | 0 mm | - | 303 W/m² | - |
| 1777824107 | 8.33° C | 66% | 1007.5 hPa | 0 mm | - | 165 W/m² | - |
| 1777823804 | 8.33° C | 66% | 1007.3 hPa | 0 mm | - | 104 W/m² | - |
* Rain latest hour (hover to see other rain measurements)
** Current wind speed in m/s (hover to see current wind gust speed)